Regional Weather Roundup
Issued by NWS Sioux Falls, SD

Home | Current Version | Previous Version | Text Only | Print | Product List | Glossary On
Versions: 1 2 3 4 5 6 7 8 9 10 11 12 13 14 15 16 17 18 19 20 21 22 23 24 25 26 27 28 29 30 31 32 33 34 35 36 37 38 39 40 41 42 43 44 45 46 47 48 49 50
000
ASUS43 KFSD 221402
RWRFSD

WEATHER ROUNDUP FOR SE SOUTH DAKOTA/SW MINNESOTA/NW IOWA
NATIONAL WEATHER SERVICE SIOUX FALLS SD
900 AM CDT TUE AUG 22 2017

NOTE: "FAIR" INDICATES FEW OR NO CLOUDS BELOW 12,000 FEET WITH NO
SIGNIFICANT WEATHER AND OR OBSTRUCTIONS TO VISIBILITY.


SDZ038>040-050-052>070-221500-
SOUTHEAST SOUTH DAKOTA

CITY           SKY/WX    TMP DP  RH WIND       PRES   REMARKS
BROOKINGS      SUNNY     58  53  84 NW3       30.17R
CHAMBERLAIN    SUNNY     61  54  77 W6        30.22S
HURON          SUNNY     55  50  83 W7        30.19R
MADISON        FAIR      59  57  94 NW9       30.17R
MITCHELL       SUNNY     59  51  75 NW5       30.20R
SIOUX FALLS    MOSUNNY   63  55  75 W6        30.17R
WINNER         FAIR      60  53  77 W6        30.24R
YANKTON        SUNNY     59  54  83 NW10      30.20R
$$

MNZ071-072-080-081-089-090-097-098-221500-
SOUTHWEST MINNESOTA

CITY           SKY/WX    TMP DP  RH WIND       PRES   REMARKS
FAIRMONT       SUNNY     60  55  83 NW14      30.10R
JACKSON        SUNNY     59  52  77 NW8       30.12R
LUVERNE        SUNNY     59  52  77 NW7       30.16R
MARSHALL       SUNNY     60  53  77 NW9       30.13S
MONTEVIDEO     SUNNY     63  63 100 NW6       30.12R
PIPESTONE      SUNNY     59  54  82 NW7       30.15S
REDWOOD FALLS  SUNNY     60  53  77 NW10      30.10R
TRACY          SUNNY     61  55  80 NW7       30.13R
WINDOM         SUNNY     61  52  72 NW12      30.11S
WORTHINGTON    SUNNY     60  50  69 NW12      30.14R
$$

IAZ001>003-012>014-020>022-031-032-NEZ013-014-SDZ071-221500-
NORTHWEST IOWA

CITY           SKY/WX    TMP DP  RH WIND       PRES   REMARKS
CHEROKEE       SUNNY     60  56  87 N6        30.15R
DENISON        SUNNY     63  55  77 N6        30.15S
ESTHERVILLE    SUNNY     59  56  89 NW12      30.10R
ORANGE CITY    SUNNY     61  55  82 NW7       30.16R
SHELDON        SUNNY     59  54  82 NW7G13    30.14R
SIOUX CITY     SUNNY     63  59  87 NW6       30.16R
SPENCER        SUNNY     62  55  77 NW8       30.13R
STORM LAKE     SUNNY     61  54  77 NW9G15    30.14R
$$

ABBREVIATIONS USED IN REMARKS
   TC - TEMPERATURE IN CELSIUS
  WCI - WIND CHILL INDEX
   HX - HEAT INDEX
  VSB - VISIBILITY





USA.gov is the U.S. government's official web portal to all federal, state and local government web resources and services.